| time (UTC) | temp F | wind direction | speed MPH | gust MPH | rain 1hr in | rain 24hr in | rain mn in | humidity % | barometer mb |
| 20260507071731 | 57 | 124 | 0.0 | 1.0 | 0.00 | 0.07 | 0.00 | 96 | 1005.6 |
| 20260507071233 | 57 | 124 | 0.0 | 0.0 | 0.00 | 0.07 | 0.00 | 96 | 1005.7 |
| 20260507070731 | 57 | 124 | 0.0 | 0.0 | 0.00 | 0.07 | 0.00 | 97 | 1005.9 |
| 20260507070231 | 57 | 124 | 0.0 | 0.0 | 0.00 | 0.07 | 0.00 | 97 | 1005.7 |
| 20260507065730 | 57 | 132 | 0.0 | 0.0 | 0.00 | 0.07 | 0.00 | 96 | 1005.5 |
| 20260507065230 | 57 | 132 | 0.0 | 0.0 | 0.00 | 0.07 | 0.00 | 97 | 1005.5 |
| 20260507064729 | 58 | 132 | 0.0 | 0.0 | 0.00 | 0.07 | 0.00 | 97 | 1005.6 |
| 20260507064229 | 57 | 133 | 0.0 | 0.0 | 0.00 | 0.07 | 0.00 | 97 | 1005.8 |
| 20260507063729 | 57 | 133 | 0.0 | 0.0 | 0.00 | 0.07 | 0.00 | 97 | 1005.8 |
| 20260507063229 | 57 | 131 | 0.0 | 0.0 | 0.00 | 0.07 | 0.00 | 97 | 1005.8 |
| 20260507062727 | 57 | 131 | 0.0 | 0.0 | 0.00 | 0.07 | 0.00 | 97 | 1005.7 |
| 20260507062227 | 57 | 232 | 0.0 | 1.0 | 0.00 | 0.07 | 0.00 | 97 | 1005.9 |
| 20260507062019 | 57 | 232 | 0.0 | 1.0 | 0.00 | 0.07 | 0.00 | 97 | 1005.8 |
| 20260507061225 | 57 | 232 | 0.0 | 1.0 | 0.00 | 0.07 | 0.00 | 97 | 1005.8 |
| 20260507061021 | 57 | 232 | 0.0 | 2.0 | 0.00 | 0.07 | 0.00 | 97 | 1006.0 |
| 20260507060223 | 57 | 234 | 1.0 | 2.0 | 0.00 | 0.07 | 0.00 | 97 | 1006.2 |
| 20260507055722 | 57 | 242 | 1.0 | 2.0 | 0.00 | 0.07 | 0.00 | 97 | 1006.1 |
| 20260507055220 | 57 | 238 | 0.0 | 2.0 | 0.00 | 0.07 | 0.00 | 97 | 1006.0 |
| 20260507054720 | 57 | 169 | 1.0 | 3.0 | 0.00 | 0.07 | 0.00 | 97 | 1006.0 |
| 20260507054219 | 57 | 205 | 1.0 | 4.0 | 0.00 | 0.07 | 0.00 | 96 | 1006.1 |
| 20260507053722 | 57 | 214 | 1.0 | 4.0 | 0.00 | 0.07 | 0.00 | 97 | 1006.1 |
| 20260507053217 | 57 | 236 | 1.0 | 4.0 | 0.00 | 0.07 | 0.00 | 97 | 1006.1 |
| 20260507053017 | 57 | 209 | 0.0 | 3.0 | 0.00 | 0.07 | 0.00 | 96 | 1006.1 |
| 20260507052211 | 57 | 228 | 0.0 | 1.0 | 0.00 | 0.07 | 0.00 | 96 | 1006.2 |
| 20260507051706 | 57 | 238 | 0.0 | 3.0 | 0.00 | 0.07 | 0.00 | 96 | 1006.2 |
| 20260507051206 | 57 | 238 | 1.0 | 3.0 | 0.00 | 0.07 | 0.00 | 96 | 1006.4 |
| 20260507050705 | 57 | 237 | 2.0 | 6.0 | 0.00 | 0.07 | 0.00 | 96 | 1006.5 |
| 20260507050203 | 57 | 229 | 2.0 | 8.0 | 0.00 | 0.07 | 0.00 | 96 | 1006.5 |
| 20260507045703 | 57 | 247 | 2.0 | 8.0 | 0.00 | 0.07 | 0.00 | 96 | 1006.5 |
| 20260507045203 | 57 | 228 | 2.0 | 4.0 | 0.00 | 0.07 | 0.00 | 96 | 1006.3 |
| 20260507044703 | 57 | 243 | 2.0 | 4.0 | 0.00 | 0.07 | 0.00 | 96 | 1006.2 |
| 20260507044201 | 57 | 231 | 2.0 | 4.0 | 0.00 | 0.07 | 0.00 | 96 | 1006.2 |
| 20260507043702 | 57 | 229 | 2.0 | 4.0 | 0.00 | 0.07 | 0.00 | 96 | 1006.2 |
| 20260507043201 | 57 | 236 | 2.0 | 4.0 | 0.00 | 0.07 | 0.00 | 96 | 1006.2 |
| 20260507042703 | 57 | 138 | 2.0 | 3.0 | 0.00 | 0.07 | 0.00 | 96 | 1006.2 |
| 20260507042159 | 57 | 219 | 2.0 | 4.0 | 0.00 | 0.07 | 0.00 | 96 | 1006.3 |
| 20260507041659 | 57 | 229 | 2.0 | 4.0 | 0.00 | 0.07 | 0.00 | 96 | 1006.2 |
| 20260507041448 | 57 | 219 | 3.0 | 6.0 | 0.00 | 0.07 | 0.00 | 96 | 1006.3 |
| 20260507040658 | 57 | 217 | 3.0 | 6.0 | 0.00 | 0.07 | 0.00 | 96 | 1006.3 |
| 20260507040231 | 57 | 204 | 3.0 | 8.0 | 0.00 | 0.07 | 0.00 | 96 | 1006.3 |
| 20260507035153 | 57 | 210 | 3.0 | 8.0 | 0.00 | 0.07 | 0.07 | 96 | 1006.7 |
| 20260507034946 | 57 | 230 | 3.0 | 7.0 | 0.00 | 0.07 | 0.07 | 96 | 1006.7 |
| 20260507034143 | 57 | 255 | 3.0 | 6.0 | 0.00 | 0.07 | 0.07 | 96 | 1006.6 |
| 20260507033643 | 57 | 224 | 3.0 | 8.0 | 0.00 | 0.07 | 0.07 | 96 | 1006.4 |
| 20260507033435 | 57 | 229 | 3.0 | 10.0 | 0.00 | 0.07 | 0.07 | 96 | 1006.4 |
| 20260507032644 | 57 | 214 | 3.0 | 10.0 | 0.00 | 0.07 | 0.07 | 96 | 1006.3 |
| 20260507032143 | 57 | 287 | 3.0 | 8.0 | 0.00 | 0.07 | 0.07 | 96 | 1006.3 |
| 20260507031642 | 57 | 219 | 3.0 | 10.0 | 0.00 | 0.07 | 0.07 | 96 | 1006.4 |
| 20260507031139 | 57 | 212 | 3.0 | 11.0 | 0.00 | 0.07 | 0.07 | 96 | 1006.1 |
| 20260507030640 | 57 | 233 | 3.0 | 11.0 | 0.00 | 0.07 | 0.07 | 96 | 1006.2 |
| 20260507030137 | 56 | 229 | 3.0 | 9.0 | 0.00 | 0.07 | 0.07 | 96 | 1006.1 |
| 20260507025637 | 56 | 219 | 4.0 | 9.0 | 0.00 | 0.07 | 0.07 | 96 | 1006.1 |
| 20260507025432 | 57 | 240 | 4.0 | 9.0 | 0.00 | 0.07 | 0.07 | 96 | 1006.0 |
| 20260507024638 | 56 | 221 | 3.0 | 8.0 | 0.00 | 0.07 | 0.07 | 96 | 1005.9 |
| 20260507024138 | 57 | 231 | 4.0 | 8.0 | 0.00 | 0.07 | 0.07 | 96 | 1006.0 |
| 20260507023635 | 57 | 245 | 4.0 | 13.0 | 0.00 | 0.07 | 0.07 | 96 | 1005.9 |
| 20260507023423 | 57 | 195 | 4.0 | 13.0 | 0.00 | 0.07 | 0.07 | 96 | 1006.0 |
| 20260507022926 | 57 | 221 | 3.0 | 9.0 | 0.00 | 0.07 | 0.07 | 96 | 1006.0 |
| 20260507022132 | 57 | 154 | 3.0 | 13.0 | 0.00 | 0.07 | 0.07 | 96 | 1006.1 |
| 20260507021926 | 57 | 146 | 4.0 | 13.0 | 0.00 | 0.07 | 0.07 | 96 | 1006.0 |
| 20260507021135 | 57 | 243 | 3.0 | 9.0 | 0.00 | 0.07 | 0.07 | 96 | 1006.3 |
| 20260507020631 | 57 | 240 | 3.0 | 9.0 | 0.00 | 0.07 | 0.07 | 96 | 1006.1 |
| 20260507020134 | 57 | 214 | 4.0 | 9.0 | 0.00 | 0.07 | 0.07 | 96 | 1006.4 |
| 20260507015630 | 57 | 245 | 3.0 | 9.0 | 0.00 | 0.07 | 0.07 | 96 | 1006.6 |
| 20260507015130 | 57 | 195 | 3.0 | 8.0 | 0.00 | 0.07 | 0.07 | 96 | 1006.6 |
| 20260507014629 | 57 | 193 | 3.0 | 8.0 | 0.00 | 0.07 | 0.07 | 96 | 1006.6 |
| 20260507014128 | 57 | 231 | 4.0 | 9.0 | 0.00 | 0.07 | 0.07 | 96 | 1006.7 |
| 20260507013919 | 57 | 214 | 3.0 | 9.0 | 0.00 | 0.07 | 0.07 | 96 | 1006.6 |
| 20260507013130 | 57 | 221 | 3.0 | 9.0 | 0.00 | 0.07 | 0.07 | 96 | 1006.6 |
| 20260507012925 | 57 | 144 | 4.0 | 11.0 | 0.00 | 0.07 | 0.07 | 96 | 1006.7 |
| 20260507012130 | 57 | 190 | 4.0 | 11.0 | 0.00 | 0.07 | 0.07 | 96 | 1006.8 |
| 20260507011927 | 57 | 229 | 3.0 | 10.0 | 0.01 | 0.07 | 0.07 | 96 | 1006.7 |
| 20260507011132 | 57 | 205 | 3.0 | 10.0 | 0.01 | 0.07 | 0.07 | 96 | 1006.8 |
| 20260507010629 | 57 | 250 | 4.0 | 11.0 | 0.02 | 0.07 | 0.07 | 96 | 1006.6 |
| 20260507010128 | 57 | 186 | 4.0 | 11.0 | 0.03 | 0.07 | 0.07 | 96 | 1006.7 |
| 20260507005631 | 57 | 248 | 4.0 | 12.0 | 0.03 | 0.07 | 0.07 | 96 | 1006.7 |
| 20260507005126 | 57 | 249 | 4.0 | 12.0 | 0.03 | 0.07 | 0.07 | 96 | 1006.6 |
| 20260507004912 | 57 | 216 | 4.0 | 12.0 | 0.03 | 0.07 | 0.07 | 96 | 1006.8 |
| 20260507004115 | 57 | 205 | 4.0 | 9.0 | 0.03 | 0.07 | 0.07 | 96 | 1006.8 |
| 20260507003612 | 57 | 233 | 4.0 | 12.0 | 0.03 | 0.07 | 0.07 | 96 | 1006.8 |
| 20260507003112 | 57 | 191 | 5.0 | 13.0 | 0.03 | 0.07 | 0.07 | 96 | 1006.9 |
| 20260507002609 | 57 | 198 | 5.0 | 13.0 | 0.03 | 0.07 | 0.07 | 96 | 1006.7 |
| 20260507002111 | 57 | 171 | 4.0 | 12.0 | 0.03 | 0.07 | 0.07 | 95 | 1006.7 |
| 20260507001609 | 58 | 136 | 3.0 | 12.0 | 0.02 | 0.06 | 0.06 | 95 | 1006.6 |
| 20260507001110 | 58 | 249 | 3.0 | 8.0 | 0.01 | 0.05 | 0.05 | 95 | 1006.6 |
| 20260507000903 | 58 | 193 | 4.0 | 12.0 | 0.01 | 0.05 | 0.05 | 95 | 1006.6 |
| 20260507000108 | 58 | 229 | 5.0 | 12.0 | 0.00 | 0.04 | 0.04 | 95 | 1006.6 |
| 20260506235605 | 58 | 125 | 4.0 | 12.0 | 0.01 | 0.04 | 0.04 | 95 | 1006.7 |
| 20260506235106 | 58 | 198 | 4.0 | 11.0 | 0.01 | 0.04 | 0.04 | 95 | 1006.6 |
| 20260506234605 | 58 | 212 | 3.0 | 8.0 | 0.01 | 0.04 | 0.04 | 95 | 1006.7 |
| 20260506234104 | 58 | 181 | 4.0 | 15.0 | 0.01 | 0.04 | 0.04 | 95 | 1006.4 |
| 20260506233603 | 58 | 162 | 5.0 | 15.0 | 0.02 | 0.04 | 0.04 | 95 | 1006.8 |
| 20260506233409 | 58 | 233 | 5.0 | 15.0 | 0.02 | 0.04 | 0.04 | 95 | 1006.8 |
| 20260506232606 | 58 | 208 | 5.0 | 12.0 | 0.02 | 0.04 | 0.04 | 95 | 1006.9 |
| 20260506232358 | 58 | 205 | 4.0 | 11.0 | 0.02 | 0.04 | 0.04 | 95 | 1006.9 |
| 20260506231603 | 58 | 92 | 4.0 | 9.0 | 0.03 | 0.04 | 0.04 | 95 | 1006.8 |
| 20260506231105 | 58 | 252 | 3.0 | 12.0 | 0.03 | 0.04 | 0.04 | 94 | 1006.8 |
| 20260506230606 | 58 | 239 | 4.0 | 12.0 | 0.03 | 0.04 | 0.04 | 94 | 1006.8 |
| 20260506230057 | 58 | 260 | 4.0 | 11.0 | 0.03 | 0.04 | 0.04 | 94 | 1006.8 |
| 20260506225845 | 58 | 204 | 3.0 | 11.0 | 0.02 | 0.03 | 0.03 | 94 | 1006.8 |
| 20260506225046 | 58 | 211 | 3.0 | 16.0 | 0.02 | 0.03 | 0.03 | 94 | 1006.9 |
| 20260506224542 | 58 | 170 | 4.0 | 16.0 | 0.02 | 0.03 | 0.03 | 94 | 1006.9 |
| 20260506224042 | 58 | 127 | 4.0 | 12.0 | 0.02 | 0.03 | 0.03 | 93 | 1007.2 |
| 20260506223542 | 58 | 229 | 3.0 | 12.0 | 0.01 | 0.02 | 0.02 | 93 | 1007.3 |
| 20260506223042 | 58 | 148 | 3.0 | 12.0 | 0.01 | 0.02 | 0.02 | 93 | 1007.3 |
| 20260506222542 | 59 | 157 | 4.0 | 9.0 | 0.01 | 0.02 | 0.02 | 92 | 1007.2 |
| 20260506222046 | 59 | 244 | 4.0 | 9.0 | 0.01 | 0.02 | 0.02 | 92 | 1007.4 |
| 20260506221546 | 59 | 151 | 4.0 | 12.0 | 0.00 | 0.01 | 0.01 | 92 | 1007.4 |
| 20260506221119 | 59 | 242 | 5.0 | 13.0 | 0.00 | 0.01 | 0.01 | 91 | 1007.4 |
| 20260506220046 | 60 | 177 | 3.0 | 11.0 | 0.00 | 0.01 | 0.01 | 91 | 1007.4 |
| 20260506215543 | 60 | 176 | 4.0 | 11.0 | 0.00 | 0.01 | 0.01 | 91 | 1007.4 |
| 20260506215121 | 60 | 253 | 4.0 | 15.0 | 0.00 | 0.01 | 0.01 | 91 | 1007.3 |
| 20260506214041 | 60 | 223 | 4.0 | 12.0 | 0.00 | 0.01 | 0.01 | 90 | 1007.3 |
| 20260506213539 | 60 | 231 | 3.0 | 11.0 | 0.00 | 0.01 | 0.01 | 90 | 1007.4 |
| 20260506213040 | 60 | 183 | 4.0 | 15.0 | 0.00 | 0.01 | 0.01 | 89 | 1007.5 |
| 20260506212537 | 60 | 191 | 5.0 | 15.0 | 0.00 | 0.01 | 0.01 | 89 | 1007.4 |
| 20260506212038 | 60 | 225 | 4.0 | 12.0 | 0.00 | 0.01 | 0.01 | 89 | 1007.6 |
| 20260506211536 | 60 | 225 | 4.0 | 15.0 | 0.00 | 0.01 | 0.01 | 89 | 1007.6 |
| 20260506211037 | 60 | 220 | 5.0 | 15.0 | 0.01 | 0.01 | 0.01 | 90 | 1007.7 |
| 20260506210842 | 60 | 245 | 5.0 | 15.0 | 0.01 | 0.01 | 0.01 | 90 | 1007.7 |
| 20260506210036 | 60 | 33 | 4.0 | 15.0 | 0.01 | 0.01 | 0.01 | 90 | 1007.7 |
| 20260506205537 | 60 | 224 | 4.0 | 14.0 | 0.01 | 0.01 | 0.01 | 90 | 1007.8 |
| 20260506205333 | 60 | 249 | 4.0 | 14.0 | 0.01 | 0.01 | 0.01 | 90 | 1007.8 |
| 20260506204536 | 60 | 237 | 4.0 | 13.0 | 0.01 | 0.01 | 0.01 | 90 | 1007.8 |
| 20260506204416 | 60 | 226 | 4.0 | 13.0 | 0.01 | 0.01 | 0.01 | 90 | 1007.7 |
| 20260506203036 | 60 | 175 | 5.0 | 14.0 | 0.01 | 0.01 | 0.01 | 90 | 1007.9 |
| 20260506202537 | 60 | 174 | 6.0 | 12.0 | 0.01 | 0.01 | 0.01 | 89 | 1007.7 |
| 20260506202036 | 60 | 231 | 4.0 | 12.0 | 0.01 | 0.01 | 0.01 | 89 | 1007.8 |
| 20260506201537 | 61 | 196 | 4.0 | 16.0 | 0.01 | 0.01 | 0.01 | 88 | 1008.0 |
| 20260506201038 | 61 | 169 | 4.0 | 16.0 | 0.00 | 0.00 | 0.00 | 87 | 1008.0 |
| 20260506200912 | 62 | 207 | 4.0 | 11.0 | 0.00 | 0.00 | 0.00 | 86 | 1008.0 |
| 20260506195538 | 62 | 230 | 5.0 | 13.0 | 0.00 | 0.00 | 0.00 | 84 | 1008.1 |
| 20260506195039 | 63 | 261 | 5.0 | 16.0 | 0.00 | 0.00 | 0.00 | 82 | 1008.3 |
| 20260506194537 | 63 | 212 | 5.0 | 16.0 | 0.00 | 0.00 | 0.00 | 81 | 1008.1 |
| 20260506194037 | 64 | 229 | 4.0 | 14.0 | 0.00 | 0.00 | 0.00 | 79 | 1008.2 |
| 20260506193536 | 64 | 233 | 5.0 | 16.0 | 0.00 | 0.00 | 0.00 | 78 | 1008.2 |
| 20260506193326 | 64 | 246 | 7.0 | 16.0 | 0.00 | 0.00 | 0.00 | 78 | 1008.2 |
| 20260506192536 | 64 | 141 | 6.0 | 14.0 | 0.00 | 0.00 | 0.00 | 78 | 1008.4 |
| 20260506192036 | 65 | 226 | 5.0 | 13.0 | 0.00 | 0.00 | 0.00 | 77 | 1008.2 |
| 20260506191535 | 65 | 215 | 4.0 | 13.0 | 0.00 | 0.00 | 0.00 | 77 | 1008.2 |
| 20260506191032 | 65 | 46 | 5.0 | 16.0 | 0.00 | 0.00 | 0.00 | 77 | 1008.2 |
| 20260506190532 | 65 | 209 | 6.0 | 16.0 | 0.00 | 0.00 | 0.00 | 77 | 1007.9 |
| 20260506190318 | 65 | 146 | 5.0 | 14.0 | 0.00 | 0.00 | 0.00 | 77 | 1008.0 |
| 20260506185530 | 65 | 219 | 4.0 | 14.0 | 0.00 | 0.00 | 0.00 | 76 | 1008.2 |
| 20260506185030 | 65 | 153 | 4.0 | 12.0 | 0.00 | 0.00 | 0.00 | 76 | 1008.3 |
| 20260506184530 | 66 | 219 | 5.0 | 18.0 | 0.00 | 0.00 | 0.00 | 76 | 1008.2 |
| 20260506184029 | 66 | 248 | 5.0 | 18.0 | 0.00 | 0.00 | 0.00 | 75 | 1008.4 |
| 20260506183532 | 66 | 255 | 5.0 | 14.0 | 0.00 | 0.00 | 0.00 | 75 | 1008.3 |
| 20260506183028 | 66 | 162 | 5.0 | 15.0 | 0.00 | 0.00 | 0.00 | 74 | 1008.5 |
| 20260506182532 | 67 | 44 | 5.0 | 15.0 | 0.00 | 0.00 | 0.00 | 74 | 1008.4 |
| 20260506182026 | 67 | 198 | 5.0 | 14.0 | 0.00 | 0.00 | 0.00 | 73 | 1008.4 |
| 20260506181817 | 67 | 284 | 5.0 | 14.0 | 0.00 | 0.00 | 0.00 | 73 | 1008.4 |
| 20260506181026 | 67 | 110 | 6.0 | 14.0 | 0.00 | 0.00 | 0.00 | 72 | 1008.8 |
| 20260506180526 | 68 | 218 | 7.0 | 19.0 | 0.00 | 0.00 | 0.00 | 71 | 1008.8 |
| 20260506180025 | 68 | 248 | 6.0 | 22.0 | 0.00 | 0.00 | 0.00 | 70 | 1008.8 |
| 20260506175525 | 69 | 185 | 6.0 | 22.0 | 0.00 | 0.00 | 0.00 | 71 | 1009.0 |
| 20260506175024 | 69 | 234 | 5.0 | 13.0 | 0.00 | 0.00 | 0.00 | 70 | 1008.8 |
| 20260506174523 | 69 | 222 | 4.0 | 10.0 | 0.00 | 0.00 | 0.00 | 70 | 1009.0 |
| 20260506174022 | 69 | 269 | 5.0 | 15.0 | 0.00 | 0.00 | 0.00 | 69 | 1009.1 |
| 20260506173522 | 70 | 207 | 6.0 | 15.0 | 0.00 | 0.00 | 0.00 | 70 | 1008.9 |
| 20260506173021 | 70 | 248 | 6.0 | 15.0 | 0.00 | 0.00 | 0.00 | 69 | 1008.9 |
| 20260506172815 | 70 | 206 | 4.0 | 12.0 | 0.00 | 0.00 | 0.00 | 69 | 1008.9 |
| 20260506172021 | 69 | 228 | 4.0 | 9.0 | 0.00 | 0.00 | 0.00 | 71 | 1008.7 |
| 20260506171549 | 69 | 262 | 5.0 | 14.0 | 0.00 | 0.00 | 0.00 | 71 | 1008.9 |
| 20260506170518 | 69 | 213 | 5.0 | 20.0 | 0.00 | 0.00 | 0.00 | 70 | 1009.0 |
| 20260506170315 | 69 | 266 | 5.0 | 20.0 | 0.00 | 0.00 | 0.00 | 70 | 1009.2 |
| 20260506165807 | 69 | 209 | 4.0 | 12.0 | 0.00 | 0.00 | 0.00 | 69 | 1009.2 |
| 20260506165015 | 69 | 200 | 5.0 | 20.0 | 0.00 | 0.00 | 0.00 | 70 | 1009.1 |
| 20260506164514 | 69 | 217 | 5.0 | 20.0 | 0.00 | 0.00 | 0.00 | 69 | 1009.2 |
| 20260506164014 | 69 | 225 | 6.0 | 15.0 | 0.00 | 0.00 | 0.00 | 69 | 1009.2 |
| 20260506163512 | 69 | 229 | 5.0 | 15.0 | 0.00 | 0.00 | 0.00 | 69 | 1009.3 |
| 20260506163012 | 69 | 166 | 4.0 | 10.0 | 0.00 | 0.00 | 0.00 | 69 | 1009.4 |
| 20260506162807 | 69 | 241 | 4.0 | 13.0 | 0.00 | 0.00 | 0.00 | 69 | 1009.3 |
| 20260506162012 | 69 | 189 | 5.0 | 13.0 | 0.00 | 0.00 | 0.00 | 69 | 1009.3 |
| 20260506161511 | 69 | 229 | 6.0 | 23.0 | 0.00 | 0.00 | 0.00 | 69 | 1009.5 |
| 20260506161046 | 69 | 238 | 6.0 | 23.0 | 0.00 | 0.00 | 0.00 | 68 | 1009.7 |
| 20260506160512 | 69 | 220 | 4.0 | 12.0 | 0.00 | 0.00 | 0.00 | 70 | 1009.7 |
| 20260506160301 | 69 | 246 | 4.0 | 12.0 | 0.00 | 0.00 | 0.00 | 69 | 1009.8 |
| 20260506155508 | 70 | 259 | 5.0 | 12.0 | 0.00 | 0.00 | 0.00 | 70 | 1009.6 |
| 20260506155008 | 69 | 226 | 6.0 | 19.0 | 0.00 | 0.00 | 0.00 | 70 | 1009.7 |
| 20260506154508 | 69 | 217 | 5.0 | 19.0 | 0.00 | 0.00 | 0.00 | 68 | 1010.4 |
| 20260506154008 | 70 | 229 | 4.0 | 12.0 | 0.00 | 0.00 | 0.00 | 68 | 1010.1 |
| 20260506153511 | 70 | 158 | 3.0 | 12.0 | 0.00 | 0.00 | 0.00 | 68 | 1010.2 |
| 20260506153008 | 71 | 186 | 3.0 | 6.0 | 0.00 | 0.00 | 0.00 | 68 | 1010.3 |
| 20260506152508 | 70 | 242 | 3.0 | 12.0 | 0.00 | 0.00 | 0.00 | 68 | 1010.4 |
| 20260506152009 | 70 | 240 | 4.0 | 12.0 | 0.00 | 0.00 | 0.00 | 69 | 1010.2 |
| 20260506151758 | 70 | 238 | 5.0 | 16.0 | 0.00 | 0.00 | 0.00 | 68 | 1010.2 |
| 20260506151012 | 69 | 227 | 6.0 | 16.0 | 0.00 | 0.00 | 0.00 | 69 | 1010.2 |
| 20260506150506 | 69 | 192 | 6.0 | 16.0 | 0.00 | 0.00 | 0.00 | 69 | 1010.3 |
| 20260506150005 | 69 | 245 | 7.0 | 18.0 | 0.00 | 0.00 | 0.00 | 68 | 1010.2 |
| 20260506145504 | 69 | 246 | 6.0 | 18.0 | 0.00 | 0.00 | 0.00 | 69 | 1010.3 |
| 20260506145305 | 69 | 203 | 4.0 | 14.0 | 0.00 | 0.00 | 0.00 | 68 | 1009.9 |
| 20260506144502 | 70 | 142 | 4.0 | 14.0 | 0.00 | 0.00 | 0.00 | 67 | 1010.0 |
| 20260506143958 | 70 | 259 | 4.0 | 12.0 | 0.00 | 0.00 | 0.00 | 67 | 1009.9 |
| 20260506143459 | 70 | 248 | 4.0 | 12.0 | 0.00 | 0.00 | 0.00 | 69 | 1009.9 |
| 20260506142957 | 69 | 217 | 4.0 | 10.0 | 0.00 | 0.00 | 0.00 | 69 | 1010.3 |
| 20260506142459 | 69 | 170 | 4.0 | 10.0 | 0.00 | 0.00 | 0.00 | 69 | 1009.9 |
| 20260506142039 | 69 | 197 | 4.0 | 13.0 | 0.00 | 0.00 | 0.00 | 69 | 1010.0 |
| 20260506141003 | 69 | 167 | 5.0 | 14.0 | 0.00 | 0.00 | 0.00 | 70 | 1009.7 |
| 20260506140457 | 69 | 158 | 5.0 | 14.0 | 0.00 | 0.00 | 0.00 | 70 | 1010.1 |
| 20260506140252 | 69 | 231 | 3.0 | 11.0 | 0.00 | 0.00 | 0.00 | 71 | 1010.3 |
| 20260506135504 | 69 | 141 | 3.0 | 6.0 | 0.00 | 0.00 | 0.00 | 71 | 1010.4 |
| 20260506134958 | 68 | 198 | 3.0 | 9.0 | 0.00 | 0.00 | 0.00 | 72 | 1010.7 |
| 20260506134758 | 68 | 253 | 3.0 | 9.0 | 0.00 | 0.00 | 0.00 | 73 | 1011.0 |
| 20260506134004 | 67 | 172 | 3.0 | 14.0 | 0.00 | 0.00 | 0.00 | 76 | 1011.0 |
| 20260506133755 | 66 | 165 | 5.0 | 20.0 | 0.00 | 0.00 | 0.00 | 76 | 1010.9 |
| 20260506132959 | 66 | 221 | 4.0 | 20.0 | 0.00 | 0.00 | 0.00 | 76 | 1010.9 |
| 20260506132455 | 65 | 250 | 4.0 | 13.0 | 0.00 | 0.00 | 0.00 | 77 | 1010.7 |
| 20260506131953 | 65 | 129 | 4.0 | 13.0 | 0.00 | 0.00 | 0.00 | 77 | 1010.9 |
| 20260506131449 | 64 | 221 | 3.0 | 9.0 | 0.00 | 0.00 | 0.00 | 79 | 1010.7 |
| 20260506130944 | 64 | 193 | 3.0 | 9.0 | 0.00 | 0.00 | 0.00 | 80 | 1011.0 |
| 20260506130436 | 63 | 219 | 4.0 | 13.0 | 0.00 | 0.00 | 0.00 | 80 | 1011.0 |
| 20260506125935 | 63 | 162 | 5.0 | 13.0 | 0.00 | 0.00 | 0.00 | 80 | 1010.8 |
| 20260506125434 | 63 | 222 | 4.0 | 11.0 | 0.00 | 0.00 | 0.00 | 81 | 1010.9 |
| 20260506124932 | 62 | 226 | 4.0 | 11.0 | 0.00 | 0.00 | 0.00 | 82 | 1010.8 |
| 20260506124434 | 62 | 219 | 5.0 | 13.0 | 0.00 | 0.00 | 0.00 | 82 | 1010.8 |
| 20260506123932 | 62 | 229 | 4.0 | 14.0 | 0.00 | 0.00 | 0.00 | 83 | 1010.6 |
| 20260506123434 | 62 | 235 | 4.0 | 15.0 | 0.00 | 0.00 | 0.00 | 82 | 1010.6 |
| 20260506122931 | 62 | 235 | 4.0 | 15.0 | 0.00 | 0.00 | 0.00 | 84 | 1010.6 |
| 20260506122729 | 61 | 128 | 3.0 | 11.0 | 0.00 | 0.00 | 0.00 | 84 | 1011.0 |
| 20260506121931 | 61 | 143 | 3.0 | 11.0 | 0.00 | 0.00 | 0.00 | 85 | 1011.1 |
| 20260506121434 | 61 | 236 | 3.0 | 8.0 | 0.00 | 0.00 | 0.00 | 85 | 1011.1 |
| 20260506121008 | 61 | 238 | 4.0 | 13.0 | 0.00 | 0.00 | 0.00 | 85 | 1011.2 |
| 20260506120226 | 61 | 177 | 5.0 | 13.0 | 0.00 | 0.00 | 0.00 | 85 | 1011.1 |
| 20260506115737 | 60 | 226 | 5.0 | 13.0 | 0.00 | 0.00 | 0.00 | 85 | 1011.3 |
| 20260506114934 | 60 | 224 | 4.0 | 12.0 | 0.00 | 0.00 | 0.00 | 86 | 1011.5 |
| 20260506114432 | 60 | 131 | 4.0 | 15.0 | 0.00 | 0.00 | 0.00 | 87 | 1011.5 |
| 20260506113924 | 60 | 221 | 4.0 | 15.0 | 0.00 | 0.00 | 0.00 | 87 | 1011.4 |
| 20260506113417 | 59 | 240 | 4.0 | 11.0 | 0.00 | 0.00 | 0.00 | 87 | 1011.3 |
| 20260506112913 | 59 | 233 | 4.0 | 12.0 | 0.00 | 0.00 | 0.00 | 87 | 1011.3 |
| 20260506112404 | 59 | 226 | 4.0 | 12.0 | 0.00 | 0.00 | 0.00 | 87 | 1011.3 |
| 20260506111904 | 59 | 204 | 4.0 | 11.0 | 0.00 | 0.00 | 0.00 | 87 | 1011.2 |
| 20260506111403 | 59 | 248 | 4.0 | 11.0 | 0.00 | 0.00 | 0.00 | 88 | 1011.2 |
| 20260506110901 | 59 | 202 | 4.0 | 10.0 | 0.00 | 0.00 | 0.00 | 88 | 1011.3 |
| 20260506110657 | 59 | 210 | 4.0 | 10.0 | 0.00 | 0.00 | 0.00 | 88 | 1011.3 |
| 20260506105905 | 59 | 249 | 4.0 | 12.0 | 0.00 | 0.00 | 0.00 | 88 | 1011.4 |
| 20260506105405 | 59 | 243 | 4.0 | 12.0 | 0.00 | 0.00 | 0.00 | 88 | 1011.4 |
| 20260506104901 | 59 | 205 | 4.0 | 13.0 | 0.00 | 0.00 | 0.00 | 88 | 1011.4 |
| 20260506104401 | 59 | 136 | 5.0 | 13.0 | 0.00 | 0.00 | 0.00 | 88 | 1011.5 |
| 20260506103901 | 59 | 162 | 4.0 | 9.0 | 0.00 | 0.00 | 0.00 | 88 | 1011.3 |
| 20260506103402 | 59 | 121 | 4.0 | 9.0 | 0.00 | 0.00 | 0.00 | 88 | 1011.4 |
| 20260506102902 | 59 | 217 | 4.0 | 9.0 | 0.00 | 0.00 | 0.00 | 88 | 1011.3 |
| 20260506102703 | 59 | 239 | 4.0 | 13.0 | 0.00 | 0.00 | 0.00 | 88 | 1011.2 |
| 20260506101901 | 59 | 270 | 4.0 | 13.0 | 0.00 | 0.00 | 0.00 | 88 | 1011.2 |
| 20260506101401 | 59 | 198 | 4.0 | 16.0 | 0.00 | 0.00 | 0.00 | 88 | 1011.2 |
| 20260506100901 | 59 | 258 | 5.0 | 16.0 | 0.00 | 0.00 | 0.00 | 88 | 1011.1 |
| 20260506100401 | 59 | 236 | 5.0 | 14.0 | 0.00 | 0.00 | 0.00 | 88 | 1011.1 |
| 20260506095902 | 59 | 208 | 4.0 | 13.0 | 0.00 | 0.00 | 0.00 | 88 | 1011.0 |
| 20260506095401 | 59 | 221 | 4.0 | 11.0 | 0.00 | 0.00 | 0.00 | 88 | 1011.0 |
| 20260506094902 | 59 | 174 | 4.0 | 10.0 | 0.00 | 0.00 | 0.00 | 88 | 1011.0 |
| 20260506094657 | 59 | 189 | 4.0 | 11.0 | 0.00 | 0.00 | 0.00 | 88 | 1011.1 |
| 20260506094156 | 59 | 233 | 3.0 | 11.0 | 0.00 | 0.00 | 0.00 | 88 | 1010.9 |
| 20260506093401 | 59 | 227 | 4.0 | 11.0 | 0.00 | 0.00 | 0.00 | 87 | 1011.0 |
| 20260506092901 | 59 | 153 | 4.0 | 11.0 | 0.00 | 0.00 | 0.00 | 87 | 1011.0 |
| 20260506092401 | 59 | 216 | 4.0 | 14.0 | 0.00 | 0.00 | 0.00 | 87 | 1011.0 |
| 20260506091901 | 59 | 267 | 5.0 | 14.0 | 0.00 | 0.00 | 0.00 | 87 | 1010.9 |
| 20260506091700 | 59 | 160 | 5.0 | 13.0 | 0.00 | 0.00 | 0.00 | 87 | 1011.1 |
| 20260506091203 | 59 | 208 | 5.0 | 14.0 | 0.00 | 0.00 | 0.00 | 87 | 1010.8 |
| 20260506090403 | 59 | 251 | 4.0 | 14.0 | 0.00 | 0.00 | 0.00 | 86 | 1010.9 |
| 20260506085902 | 59 | 269 | 4.0 | 11.0 | 0.00 | 0.00 | 0.00 | 87 | 1011.0 |
| 20260506085655 | 59 | 216 | 4.0 | 11.0 | 0.00 | 0.00 | 0.00 | 87 | 1011.2 |
| 20260506084902 | 59 | 229 | 5.0 | 15.0 | 0.00 | 0.00 | 0.00 | 86 | 1011.1 |
| 20260506084656 | 59 | 257 | 5.0 | 15.0 | 0.00 | 0.00 | 0.00 | 86 | 1011.2 |
| 20260506083902 | 59 | 218 | 4.0 | 14.0 | 0.00 | 0.00 | 0.00 | 86 | 1011.1 |
| 20260506083402 | 59 | 228 | 5.0 | 14.0 | 0.00 | 0.00 | 0.00 | 86 | 1011.1 |
| 20260506082905 | 59 | 224 | 4.0 | 11.0 | 0.00 | 0.00 | 0.00 | 86 | 1011.1 |
| 20260506082654 | 59 | 229 | 5.0 | 11.0 | 0.00 | 0.00 | 0.00 | 86 | 1011.1 |
| 20260506081900 | 60 | 228 | 5.0 | 11.0 | 0.00 | 0.00 | 0.00 | 86 | 1011.0 |
| 20260506081654 | 60 | 160 | 5.0 | 16.0 | 0.00 | 0.00 | 0.00 | 85 | 1010.9 |
| 20260506080857 | 60 | 229 | 6.0 | 19.0 | 0.00 | 0.00 | 0.00 | 85 | 1011.0 |
| 20260506080357 | 60 | 218 | 5.0 | 19.0 | 0.00 | 0.00 | 0.00 | 85 | 1011.2 |
| 20260506073353 | 60 | 236 | 6.0 | 15.0 | 0.00 | 0.00 | 0.00 | 84 | 1010.9 |
| 20260506073149 | 60 | 196 | 5.0 | 16.0 | 0.00 | 0.00 | 0.00 | 84 | 1010.9 |
| 20260506072353 | 60 | 184 | 6.0 | 16.0 | 0.00 | 0.00 | 0.00 | 84 | 1010.6 |
| 20260506071855 | 60 | 234 | 6.0 | 15.0 | 0.00 | 0.00 | 0.00 | 84 | 1010.9 |